Location: Calvatone
(45.1167°N, 10.4333°E)
Time: 10:22:20
(UTC+00:00)

PAYLOAD B - Pass Details

Date: 28 January 2023
Orbit: 849 x 870 km, 99.1° (Epoch: 28 March)

Event Time Altitude Azimuth Distance (km) Brightness Sun altitude
Rises 17:59:03 0° 166° (SSE) 3,424 7.3 -17.6°
Reaches altitude 10° 18:01:25 10° 168° (SSE) 2,488 6.6 -18.0°
Maximum altitude 18:06:57 80° 255° (WSW) 873 4.3 -18.9°
Drops below altitude 10° 18:12:30 10° 343° (NNW) 2,492 6.8 -19.9°
Sets 18:14:53 0° 345° (NNW) 3,430 7.5 -20.3°
